When you browse on this site, cookies collect data to enhance your experience and personalize the content and advertising you see.
Visit our Privacy Policy to learn more. By continuing to use the site, you agree to this use of cookies and data.
  • en Suisse
  • Liste des pays
  • À 7 jours
  • Température de l'eau
  • Carte satellitaire
  • Carte météo
  • Widgets météo
  • user-avatar
    Se connecter

    Météo par heure à Yanghou

    Ce jour, 22 Juillet, Lundi

    Heure Température Précipitation Vent Pression Humidité
    00:00 +24°C° 1.6 mm 0 m/s 722 mmHg 95%
    01:00 +24°C° 1.6 mm 0 m/s 722 mmHg 96%
    02:00 +24°C° 1.6 mm 0 m/s 722 mmHg 96%
    03:00 +24°C° 0.5 mm 0 m/s 722 mmHg 96%
    04:00 +24°C° 0.5 mm 0 m/s 721 mmHg 97%
    05:00 +23°C° 0.5 mm 0 m/s 721 mmHg 97%
    06:00 +24°C° 0 mm 0 m/s 722 mmHg 97%
    07:00 +24°C° 0 mm 0 m/s 722 mmHg 96%
    08:00 +25°C° 0 mm 0 m/s 722 mmHg 96%
    09:00 +26°C° 0.7 mm 0 m/s 722 mmHg 92%
    10:00 +29°C° 0.7 mm 1 m/s 722 mmHg 89%
    11:00 +30°C° 0.7 mm 1 m/s 722 mmHg 86%
    12:00 +31°C° 1.6 mm 1 m/s 722 mmHg 81%
    13:00 +32°C° 1.6 mm 1 m/s 721 mmHg 77%
    14:00 +33°C° 1.6 mm 1 m/s 721 mmHg 73%
    15:00 +32°C° 1.3 mm 1 m/s 721 mmHg 75%
    16:00 +32°C° 1.3 mm 1 m/s 721 mmHg 78%
    17:00 +31°C° 1.3 mm 1 m/s 720 mmHg 81%
    18:00 +30°C° 0.7 mm 1 m/s 721 mmHg 85%
    19:00 +28°C° 0.7 mm 1 m/s 721 mmHg 89%
    20:00 +27°C° 0.7 mm 1 m/s 721 mmHg 94%
    21:00 +26°C° 0.3 mm 1 m/s 722 mmHg 95%
    22:00 +26°C° 0.3 mm 1 m/s 722 mmHg 95%
    23:00 +26°C° 0.3 mm 1 m/s 722 mmHg 96%

    Demain, 23 Juillet, Mardi

    Heure Température Précipitation Vent Pression Humidité
    00:00 +25°C° 0 mm 1 m/s 722 mmHg 97%
    01:00 +25°C° 0 mm 1 m/s 722 mmHg 97%
    02:00 +25°C° 0 mm 1 m/s 722 mmHg 98%
    03:00 +25°C° 0 mm 1 m/s 722 mmHg 98%
    04:00 +24°C° 0 mm 1 m/s 722 mmHg 98%
    05:00 +24°C° 0 mm 1 m/s 722 mmHg 98%
    06:00 +25°C° 0 mm 1 m/s 722 mmHg 95%
    07:00 +26°C° 0 mm 1 m/s 722 mmHg 91%
    08:00 +28°C° 0 mm 1 m/s 723 mmHg 88%
    09:00 +30°C° 0 mm 1 m/s 723 mmHg 78%
    10:00 +32°C° 0 mm 1 m/s 723 mmHg 67%
    11:00 +34°C° 0 mm 1 m/s 723 mmHg 57%
    12:00 +34°C° 0.1 mm 1 m/s 722 mmHg 57%
    13:00 +34°C° 0.1 mm 1 m/s 722 mmHg 56%
    14:00 +35°C° 0.1 mm 1 m/s 721 mmHg 55%
    15:00 +34°C° 0.6 mm 1 m/s 721 mmHg 62%
    16:00 +33°C° 0.6 mm 1 m/s 721 mmHg 69%
    17:00 +32°C° 0.6 mm 1 m/s 720 mmHg 76%
    18:00 +28°C° 0.2 mm 0 m/s 721 mmHg 81%
    19:00 +27°C° 0.2 mm 0 m/s 721 mmHg 86%
    20:00 +25°C° 0.2 mm 0 m/s 721 mmHg 91%
    21:00 +25°C° 0 mm 0 m/s 721 mmHg 92%
    22:00 +24°C° 0 mm 0 m/s 722 mmHg 93%
    23:00 +24°C° 0 mm 0 m/s 722 mmHg 94%

    Après-demain, 24 Juillet, Mercredi

    Heure Température Précipitation Vent Pression Humidité
    00:00 +24°C° 0 mm 0 m/s 722 mmHg 95%
    01:00 +24°C° 0 mm 0 m/s 721 mmHg 95%
    02:00 +23°C° 0 mm 0 m/s 721 mmHg 96%
    03:00 +23°C° 0 mm 0 m/s 721 mmHg 97%
    04:00 +23°C° 0 mm 0 m/s 721 mmHg 97%
    05:00 +23°C° 0 mm 0 m/s 721 mmHg 97%
    06:00 +24°C° 0 mm 0 m/s 722 mmHg 94%
    07:00 +25°C° 0 mm 0 m/s 722 mmHg 91%
    08:00 +26°C° 0 mm 0 m/s 723 mmHg 87%
    09:00 +30°C° 0.1 mm 1 m/s 723 mmHg 78%
    10:00 +32°C° 0.1 mm 1 m/s 723 mmHg 70%
    11:00 +34°C° 0.1 mm 1 m/s 723 mmHg 61%
    12:00 +34°C° 0.3 mm 1 m/s 722 mmHg 61%
    13:00 +34°C° 0.3 mm 1 m/s 722 mmHg 61%
    14:00 +34°C° 0.3 mm 1 m/s 721 mmHg 62%
    15:00 +34°C° 0.3 mm 1 m/s 721 mmHg 64%
    16:00 +33°C° 0.3 mm 1 m/s 721 mmHg 66%
    17:00 +33°C° 0.3 mm 1 m/s 721 mmHg 68%
    18:00 +29°C° 0.2 mm 0 m/s 721 mmHg 74%
    19:00 +27°C° 0.2 mm 0 m/s 721 mmHg 80%
    20:00 +26°C° 0.2 mm 0 m/s 722 mmHg 87%
    21:00 +25°C° 0 mm 0 m/s 722 mmHg 88%
    22:00 +25°C° 0 mm 0 m/s 722 mmHg 89%
    23:00 +25°C° 0 mm 0 m/s 723 mmHg 90%

    25 Juillet, Jeudi

    Heure Température Précipitation Vent Pression Humidité
    00:00 +24°C° 0 mm 0 m/s 722 mmHg 91%
    01:00 +24°C° 0 mm 0 m/s 722 mmHg 92%
    02:00 +24°C° 0 mm 0 m/s 722 mmHg 93%
    03:00 +24°C° 0 mm 0 m/s 722 mmHg 94%
    04:00 +23°C° 0 mm 0 m/s 722 mmHg 95%
    05:00 +23°C° 0 mm 0 m/s 722 mmHg 96%
    06:00 +24°C° 0 mm 0 m/s 722 mmHg 92%
    07:00 +26°C° 0 mm 0 m/s 723 mmHg 88%
    08:00 +27°C° 0 mm 0 m/s 723 mmHg 84%
    09:00 +31°C° 0.2 mm 1 m/s 723 mmHg 78%
    10:00 +32°C° 0.2 mm 1 m/s 723 mmHg 72%
    11:00 +33°C° 0.2 mm 1 m/s 723 mmHg 66%
    12:00 +34°C° 0.3 mm 1 m/s 723 mmHg 63%
    13:00 +34°C° 0.3 mm 1 m/s 722 mmHg 61%
    14:00 +35°C° 0.3 mm 1 m/s 722 mmHg 58%
    15:00 +34°C° 0.1 mm 1 m/s 721 mmHg 60%
    16:00 +34°C° 0.1 mm 1 m/s 721 mmHg 63%
    17:00 +33°C° 0.1 mm 1 m/s 721 mmHg 65%
    18:00 +32°C° 0 mm 1 m/s 721 mmHg 71%
    19:00 +30°C° 0 mm 1 m/s 721 mmHg 78%
    20:00 +28°C° 0 mm 1 m/s 722 mmHg 84%
    21:00 +26°C° 0 mm 0 m/s 722 mmHg 85%
    22:00 +25°C° 0 mm 0 m/s 722 mmHg 85%
    23:00 +25°C° 0 mm 0 m/s 722 mmHg 86%

    26 Juillet, Vendredi

    Heure Température Précipitation Vent Pression Humidité
    00:00 +25°C° 0 mm 0 m/s 722 mmHg 87%
    01:00 +24°C° 0 mm 0 m/s 722 mmHg 89%
    02:00 +24°C° 0 mm 0 m/s 721 mmHg 90%
    03:00 +24°C° 0 mm 0 m/s 721 mmHg 91%
    04:00 +24°C° 0 mm 0 m/s 721 mmHg 92%
    05:00 +24°C° 0 mm 0 m/s 721 mmHg 93%
    06:00 +25°C° 0.2 mm 0 m/s 722 mmHg 91%
    07:00 +26°C° 0.2 mm 0 m/s 722 mmHg 88%
    08:00 +27°C° 0.2 mm 0 m/s 722 mmHg 86%
    09:00 +28°C° 1.6 mm 0 m/s 722 mmHg 83%
    10:00 +28°C° 1.6 mm 0 m/s 722 mmHg 81%
    11:00 +31°C° 1.6 mm 1 m/s 722 mmHg 79%
    12:00 +32°C° 1 mm 1 m/s 722 mmHg 77%
    13:00 +32°C° 1 mm 1 m/s 722 mmHg 75%
    14:00 +32°C° 1 mm 1 m/s 721 mmHg 72%
    15:00 +31°C° 1.4 mm 1 m/s 721 mmHg 79%
    16:00 +30°C° 1.4 mm 1 m/s 721 mmHg 85%
    17:00 +29°C° 1.4 mm 1 m/s 721 mmHg 92%
    18:00 +28°C° 0.2 mm 1 m/s 721 mmHg 93%
    19:00 +27°C° 0.2 mm 1 m/s 722 mmHg 94%
    20:00 +26°C° 0.2 mm 1 m/s 722 mmHg 95%
    21:00 +26°C° 0 mm 1 m/s 722 mmHg 94%
    22:00 +26°C° 0 mm 1 m/s 722 mmHg 94%
    23:00 +26°C° 0 mm 1 m/s 722 mmHg 94%

    27 Juillet, Samedi

    Heure Température Précipitation Vent Pression Humidité
    00:00 +26°C° 0 mm 1 m/s 722 mmHg 95%
    01:00 +26°C° 0 mm 1 m/s 722 mmHg 95%
    02:00 +26°C° 0 mm 1 m/s 721 mmHg 95%
    03:00 +25°C° 0 mm 1 m/s 721 mmHg 95%
    04:00 +25°C° 0 mm 1 m/s 722 mmHg 96%
    05:00 +25°C° 0 mm 1 m/s 722 mmHg 96%
    06:00 +26°C° 0.4 mm 1 m/s 722 mmHg 96%
    07:00 +26°C° 0.4 mm 1 m/s 722 mmHg 95%
    08:00 +26°C° 0.4 mm 1 m/s 723 mmHg 94%
    09:00 +26°C° 0.6 mm 1 m/s 723 mmHg 94%
    10:00 +25°C° 0.6 mm 0 m/s 723 mmHg 93%
    11:00 +25°C° 0.6 mm 0 m/s 723 mmHg 93%
    12:00 +25°C° 0.1 mm 0 m/s 723 mmHg 92%
    13:00 +25°C° 0.1 mm 0 m/s 723 mmHg 90%
    14:00 +27°C° 0.1 mm 1 m/s 723 mmHg 89%
    15:00 +28°C° 0 mm 1 m/s 723 mmHg 86%
    16:00 +26°C° 0 mm 0 m/s 722 mmHg 83%
    17:00 +27°C° 0 mm 0 m/s 722 mmHg 80%
    18:00 +26°C° 0.1 mm 0 m/s 723 mmHg 83%
    19:00 +25°C° 0.1 mm 0 m/s 723 mmHg 86%
    20:00 +24°C° 0.1 mm 0 m/s 723 mmHg 88%
    21:00 +26°C° 0 mm 1 m/s 723 mmHg 88%
    22:00 +26°C° 0 mm 1 m/s 724 mmHg 89%
    23:00 +25°C° 0 mm 1 m/s 724 mmHg 89%
    Voir plus